Location: Grange Verzio
(44.5000°N, 6.9833°E)
Time: 18:26:08
(UTC+00:00)

Cosmos 2219 Rocket - Pass Details

Date: 01 October 2023
Orbit: 826 x 848 km, 71.0° (Epoch: 08 December)

Event Time Altitude Azimuth Distance (km) Brightness Sun altitude
Rises 18:32:01 0° 232° (SW) 3,354 6.0 -14.8°
Reaches altitude 10° 18:34:40 10° 242° (WSW) 2,426 5.3 -15.3°
Maximum altitude 18:39:40 33° 306° (NW) 1,354 3.9 -16.1°
Drops below altitude 10° 18:44:43 10° 10° (N) 2,448 4.6 -17.0°
Sets 18:47:25 0° 20° (NNE) 3,389 5.3 -17.5°
